www.pogodaiklimat.ru

Погода и климат >> Архив погоды >> Австралия >> Clermont Airport


ПОГОДА в Clermont Airport

  • Прогноз погоды в Clermont Airport
  • Монитор погоды в Clermont Airport
  • Климат города

АРХИВ ПОГОДЫ в Clermont Airport

Время (UTC), дата Ветер
(напр.,м/с)
 
Видим.   Явления Облачность Т
(С)
Тd
(С)
f
(%)
Тe
(С)
Тes
(С)
Комфортность P
(гПа)
Po
(гПа)
Тmin
(С)
Tmax
(С)
R
(мм)
R24
(мм)
S
(см)
14 9.10 СВ 3 н/о н/о +25.2 +9.5 37 +26 +26 жарко 1012.3 981.5 +34.9
15 9.10 СВ 1 н/о н/о +22.6 +9.4 43 +24 +24 комфорт 1012.4 981.6
17 9.10 СВ 1 н/о н/о +20.2 +13.2 64 +23 +23 комфорт 1012.2 981.4
18 9.10 Ю 1 н/о н/о +19.1 +11.9 63 +22 +22 комфорт 1012.9 982.1
20 9.10 штиль 0 н/о н/о +17.4 +13.1 76 +17 +17 1013.9 983.1
21 9.10 С 3 н/о н/о +20.8 +15.4 71 +24 +24 комфорт 1014.4 983.6
23 9.10 С 5 н/о н/о +26.7 +14.1 46 +29 +29 жарко 1014.6 983.8
00 10.10 С 6 н/о н/о +27.9 +13.8 42 +30 +30 жарко 1014.2 983.4
02 10.10 С 6 н/о н/о +33.1 +13.2 30 +34 +34 очень
жарко
1011.7 981.0 +17.5
03 10.10 С 5 н/о н/о +34.6 +12.3 26 +35 +35 очень
жарко
1010.6 979.9
05 10.10 СВ 3 н/о н/о +35.4 +8.3 19 +34 +34 очень
жарко
1008.8 978.1
06 10.10 С 4 н/о н/о +35.3 +8.2 19 +34 +34 очень
жарко
1008.2 977.6
08 10.10 СЗ 3 н/о н/о +33.6 +6.8 19 +32 +32 жарко 1008.4 977.8
09 10.10 ЮЗ 7 н/о н/о +30.7 +9.6 27 +30 +30 жарко 1010.3 979.6
11 10.10 СВ 1 н/о н/о +26.2 +14.3 48 +29 +29 жарко 1011.1 980.4
12 10.10 СЗ 2 н/о н/о +25.5 +13.4 47 +28 +28 жарко 1011.1 980.4
14 10.10 С 3 н/о н/о +24.2 +13.1 50 +26 +26 жарко 1011.0 980.3 +36.9
15 10.10 С 3 н/о н/о +25.0 +11.2 42 +26 +26 жарко 1011.0 980.3
17 10.10 С 3 н/о н/о +24.3 +10.2 41 +25 +25 комфорт 1010.2 979.5
18 10.10 С 3 н/о н/о +23.4 +10.1 43 +25 +25 комфорт 1009.9 979.2
20 10.10 С 3 н/о н/о +23.7 +9.7 41 +25 +25 комфорт 1011.1 980.4
21 10.10 С 4 н/о н/о +24.3 +9.1 38 +25 +25 комфорт 1011.6 980.9
23 10.10 СЗ 7 н/о н/о +29.8 +8.2 26 +29 +29 жарко 1012.6 981.8
00 11.10 С 6 н/о н/о +31.1 +10.4 28 +31 +31 жарко 1012.4 981.6
02 11.10 СЗ 5 н/о н/о +35.2 +9.6 21 +34 +34 очень
жарко
1011.0 980.3 +23.0
03 11.10 СЗ 7 н/о н/о +35.1 +9.5 21 +34 +34 очень
жарко
1009.9 979.2
05 11.10 СЗ 5 н/о н/о +37.4 +9.1 18 +36 +36 очень
жарко
1008.1 977.5
06 11.10 С 4 н/о н/о +35.8 +8.6 19 +34 +34 очень
жарко
1007.8 977.2
08 11.10 С 3 н/о н/о +33.7 +9.0 22 +32 +32 жарко 1008.3 977.7
09 11.10 С 2 н/о н/о +31.5 +9.1 25 +31 +31 жарко 1008.9 978.2
11 11.10 СЗ 1 н/о н/о +26.5 +8.9 33 +27 +27 жарко 1010.0 979.3
12 11.10 СЗ 2 н/о н/о +27.6 +10.8 35 +28 +28 жарко 1011.0 980.3
14 11.10 СВ 3 н/о н/о +27.2 +12.0 39 +28 +28 жарко 1011.7 981.0 +37.8
15 11.10 С 4 н/о н/о +26.2 +12.6 43 +28 +28 жарко 1011.0 980.3
17 11.10 С 4 н/о н/о +24.7 +9.4 38 +25 +25 комфорт 1009.9 979.2
18 11.10 С 5 н/о н/о +24.2 +10.1 41 +25 +25 комфорт 1010.8 980.1
20 11.10 С 4 н/о н/о +23.6 +12.3 49 +25 +25 комфорт 1012.9 982.1
21 11.10 С 4 н/о н/о +23.4 +13.8 55 +27 +27 душно 1014.5 983.7
23 11.10 СВ 5 н/о {туман} н/о +23.6 +14.3 56 +26 +26 жарко 1014.5 983.7
00 12.10 СВ 4 н/о н/о +24.9 +15.2 55 +28 +28 жарко 1013.6 982.8
02 12.10 С 5 н/о {туман} н/о +27.4 +14.1 44 +30 +30 жарко 1012.4 981.6 +21.0
03 12.10 С 5 н/о н/о +26.0 +15.4 52 +29 +29 душно 1012.6 981.8
05 12.10 С 5 н/о {туман} н/о +26.6 +15.6 51 +30 +30 душно 1010.7 980.0
06 12.10 С 4 н/о н/о +27.8 +15.1 46 +30 +30 жарко 1010.3 979.6
08 12.10 С 3 н/о н/о +26.3 +15.0 50 +29 +29 жарко 1010.3 979.6
09 12.10 С 2 н/о н/о +24.0 +14.1 54 +26 +26 жарко 1011.1 980.4
11 12.10 С 4 н/о н/о +24.1 +13.9 53 +26 +26 жарко 1012.5 981.7
12 12.10 С 3 н/о н/о +23.0 +15.1 61 +27 +27 душно 1012.6 981.8
14 12.10 ЮЗ 2 н/о н/о +21.6 +14.5 64 +25 +25 комфорт 1013.5 982.7 +29.3
15 12.10 Ю 3 н/о н/о +21.3 +15.8 71 +25 +25 комфорт 1013.3 982.5
17 12.10 штиль 0 н/о н/о +19.3 +14.6 74 +21 +21 комфорт 1012.9 982.1
18 12.10 штиль 0 н/о н/о +19.4 +15.3 77 +21 +21 комфорт 1013.1 982.3
20 12.10 СЗ 1 н/о н/о +17.9 +14.4 80 +19 +19 1013.7 982.9
21 12.10 штиль 0 н/о н/о +21.7 +15.8 69 +25 +25 комфорт 1014.4 983.6
23 12.10 С 3 н/о н/о +25.8 +15.8 54 +29 +29 душно 1014.6 983.8
00 13.10 С 3 н/о н/о +27.4 +14.4 45 +30 +30 жарко 1014.1 983.3
02 13.10 С 4 н/о н/о +29.2 +12.6 36 +30 +30 жарко 1012.2 981.4 +17.5
03 13.10 СЗ 3 н/о н/о +28.9 +12.8 37 +30 +30 жарко 1010.7 980.0
05 13.10 С 4 н/о н/о +30.0 +11.0 31 +30 +30 жарко 1008.0 977.4
06 13.10 ЮВ 4 н/о н/о +20.9 +16.1 74 +25 +25 комфорт 1009.9 979.2
08 13.10 СВ 2 н/о туман н/о +18.4 +17.1 92 +20 +20 1012.8 982.0
09 13.10 ЮВ 1 н/о н/о +18.1 +16.1 88 +19 +19 1014.3 983.5
11 13.10 ЮВ 2 н/о {туман} н/о +18.2 +16.4 89 +19 +19 1014.8 984.0
12 13.10 В 1 н/о н/о +18.4 +16.6 89 +20 +20 1015.4 984.5
14 13.10 ЮВ 1 н/о н/о +17.9 +15.9 88 +19 +19 1015.1 984.3 +32.2
15 13.10 Ю 1 н/о н/о +17.5 +15.5 88 +19 +19 1014.9 984.1
17 13.10 штиль 0 н/о н/о +16.1 +15.1 94 +16 +16 1013.9 983.1
18 13.10 штиль 0 н/о н/о +15.6 +14.5 93 +15 +15 1013.7 982.9
20 13.10 В 1 н/о н/о +14.6 +13.8 95 +15 +15 1015.5 984.6
21 13.10 ЮВ 2 н/о н/о +16.2 +15.7 97 +16 +16 1016.2 985.3
23 13.10 ЮВ 3 н/о н/о +20.2 +15.6 75 +23 +23 комфорт 1017.0 986.1
00 14.10 В 2 н/о н/о +21.5 +16.0 71 +25 +25 комфорт 1016.4 985.5
02 14.10 В 2 н/о н/о +24.2 +15.9 60 +27 +27 жарко 1014.7 983.9 +14.5
03 14.10 ЮВ 3 н/о н/о +26.5 +14.9 49 +29 +29 жарко 1013.7 982.9
05 14.10 В 2 н/о н/о +28.9 +13.9 40 +31 +31 жарко 1012.3 981.5
06 14.10 В 2 н/о н/о +28.9 +12.3 36 +30 +30 жарко 1011.8 981.1
08 14.10 ЮВ 2 н/о н/о +27.5 +11.9 38 +29 +29 жарко 1013.3 982.5
09 14.10 ЮВ 2 н/о н/о +25.8 +13.3 46 +28 +28 жарко 1014.1 983.3
11 14.10 В 1 н/о н/о +22.4 +14.0 59 +26 +26 жарко 1014.8 984.0
12 14.10 штиль 0 н/о н/о +21.0 +14.6 67 +24 +24 комфорт 1015.4 984.5
14 14.10 штиль 0 н/о н/о +18.4 +16.0 86 +19 +19 1015.3 984.4 +29.2
15 14.10 СВ 1 н/о н/о +18.4 +14.3 77 +21 +21 комфорт 1014.8 984.0
17 14.10 В 1 н/о н/о +17.2 +14.7 85 +19 +19 1014.1 983.3
18 14.10 штиль 0 н/о н/о +16.6 +14.6 88 +16 +16 1014.2 983.4
20 14.10 штиль 0 н/о н/о +15.9 +14.6 92 +16 +16 1015.8 984.9
21 14.10 ЮВ 2 н/о н/о +19.3 +15.2 77 +21 +21 комфорт 1016.5 985.6
23 14.10 В 1 н/о н/о +23.7 +15.7 61 +27 +27 жарко 1016.9 986.0
00 15.10 ЮВ 2 н/о н/о +25.7 +15.1 52 +29 +29 душно 1016.4 985.5
02 15.10 ЮЗ 2 н/о н/о +29.1 +13.3 38 +31 +31 жарко 1014.4 983.6 +15.7
03 15.10 В 2 н/о н/о +31.0 +12.8 33 +32 +32 жарко 1013.2 982.4
05 15.10 Ю 2 н/о н/о +31.5 +10.8 28 +31 +31 жарко 1011.6 980.9
06 15.10 Ю 2 н/о н/о +31.9 +10.6 27 +32 +32 жарко 1011.3 980.6
08 15.10 ЮВ 2 н/о н/о +30.2 +10.2 29 +30 +30 жарко 1012.1 981.3
09 15.10 ЮВ 2 н/о н/о +28.3 +10.5 33 +29 +29 жарко 1012.6 981.8
11 15.10 штиль 0 н/о н/о +24.6 +11.5 44 +26 +26 жарко 1013.8 983.0
12 15.10 штиль 0 н/о н/о +23.7 +12.0 48 +25 +25 комфорт 1014.0 983.2
14 15.10 штиль 0 н/о н/о +22.7 +12.0 51 +25 +25 комфорт 1013.4 982.6 +32.7
15 15.10 штиль 0 н/о н/о +19.8 +14.6 72 +22 +22 комфорт 1013.2 982.4
17 15.10 ЮЗ 2 н/о н/о +19.1 +13.9 72 +21 +21 комфорт 1012.9 982.1
18 15.10 СЗ 1 н/о н/о +19.9 +14.0 69 +23 +23 комфорт 1013.3 982.5
20 15.10 Ю 1 н/о н/о +18.6 +14.1 75 +20 +20 1014.7 983.9
21 15.10 Ю 3 н/о н/о +20.9 +14.3 66 +24 +24 комфорт 1015.6 984.7
23 15.10 ЮВ 3 н/о н/о +25.1 +16.5 59 +29 +29 душно 1016.3 985.4
00 16.10 ЮВ 3 н/о н/о +27.2 +15.2 48 +30 +30 душно 1016.0 985.1
02 16.10 ЮЗ 3 н/о н/о +31.1 +13.4 34 +32 +32 жарко 1014.2 983.4 +18.2
03 16.10 Ю 2 н/о н/о +31.7 +11.5 29 +32 +32 жарко 1012.7 981.9
05 16.10 В 2 н/о н/о +32.1 +11.8 29 +32 +32 жарко 1010.5 979.8
06 16.10 В 1 н/о н/о +31.9 +11.1 28 +32 +32 жарко 1010.0 979.3
08 16.10 ЮВ 1 н/о н/о +30.8 +11.7 31 +31 +31 жарко 1010.6 979.9
09 16.10 ЮВ 2 н/о н/о +29.3 +12.7 36 +30 +30 жарко 1010.6 979.9
11 16.10 В 1 н/о н/о +27.4 +12.6 40 +29 +29 жарко 1012.6 981.8

 

Местоположение метеостанции Clermont Airport (Квинсленд, Австралия): широта -22.77 долгота 147.62 высота над уровнем моря 271 м.

В архиве по умолчанию представлена погода в Clermont Airport за последнюю неделю. Архивные данные за месяц целиком и за предыдущие месяцы, начиная с января 2011 года, Вы можете получить, выбрав интересующий диапазон дат из раскрывающегося списка и нажав кнопку "Ввод!".


*Определитесь, кто Вы:
робот инопланетянин человек

Внимание! Время в таблицах - всемирное. Для получения местного времени необходимо прибавить поправку, которая в Clermont Airport равна 10 ч.

Смотрите также архив погоды в соседних городах и на ближайших метеорологических станциях:

Погода в Emerald Airport (Квинсленд, Австралия) (105 км)
Погода в Lochington (Квинсленд, Австралия) (129 км)
Погода в St Lawrence (Квинсленд, Австралия) (201 км)
Погода в Rolleston Airport (Квинсленд, Австралия) (215 км)
Погода в Mackay Airport (Квинсленд, Австралия) (240 км)
Погода в Mackay Mo (Квинсленд, Австралия) (247 км)
Погода в Williamson (Квинсленд, Австралия) (265 км)
Погода в Proserpine Airport (Квинсленд, Австралия) (269 км)
Погода в Blackall Airport (Квинсленд, Австралия) (289 км)
Погода в Middle Percy Island (Квинсленд, Австралия) (299 км)

Пояснения к столбцам:

Ветер - указаны скорость ветра в м/с - средняя за 10 мин, порывы в срок и между сроками (в фигурных скобках) и направление, откуда дует ветер: С - северный, СВ - северо-восточный, В - восточный, ЮВ - юго-восточный, Ю - южный, ЮЗ - юго-западный, З - западный, СЗ - северо-западный.
Видимость - горизонтальная дальность видимости в метрах или километрах. При видимости от 1 до 10 км при отсутствии осадков обычно наблюдается дымка, при ухудшении видимости до 1 км и менее - туман. В сухую погоду видимость может ухудшаться дымом, пылью или мглою.
Явления - указаны атмосферные явления, наблюдавшиеся в срок или в последний час перед сроком; фигурными скобками обозначены явления, наблюдавшиеся между сроками (за 1-3 часа до срока); квадратными скобками обозначены град или гололедные отложения с указанием их диаметра в мм.
Облачность - указаны через наклонную черту общая и нижняя облачность в баллах и высота нижней границы облаков в метрах; квадратными скобками обозначены формы облаков: Ci - перистые, Cs - перисто-слоистые, Cc - перисто-кучевые, Ac - высококучевые, As - высокослоистые, Sc - слоисто-кучевые, Ns - слоисто-дождевые, Cu - кучевые, Cb - кучево-дождевые. Подробнее классификацию облаков см. в Атласе облаков (PDF).
T - Температура воздуха - температура, измеренная на высоте 2 м над землей.
Td - Температура точки росы - температура, при понижении до которой содержащийся в воздухе водяной пар достигнет насыщения.
f - Относительная влажность воздуха - влажноcть воздуха, измеренная на высоте 2 м над землей.
Te - Эффективная температура - температура, которую ощущает одетый по сезону человек в тени. Характеристика душности погоды. При расчете учитывается влияние влажности воздуха и скорости ветра на теплоощущения человека.
Tes - Эффективная температура на солнце - температура, которую ощущает человек, с поправкой на солнечный нагрев. Характеристика знойности погоды. Зависит от высоты солнца над горизонтом, облачности и скорости ветра. Ночью, в пасмурную погоду, а также при ветре 12 м/с и более поправка равна нулю.
P - Атмосферное давление - приведенное к уровню моря атмосферное давление.
Po - Атмосферное давление - измеренное на уровне метеостанции атмосферное давление.
Tmin - Минимальная температура - минимум температуры воздуха на высоте 2 м над землей.
Tmax - Максимальная температура - максимум температуры воздуха на высоте 2 м над землей.
R - Количество осадков - Количество выпавших осадков за период времени, мм. При наведении курсора мыши на число - период времени, за который выпало указанное количество осадков.
R24 - Количество осадков - Количество выпавших осадков за 24 часа, мм.
S - Снежный покров - Высота снежного покрова, см. При наведении курсора мыши на число - состояние снежного покрова и степень покрытия местности в баллах.